Tracking 20083 objects as of 12-Dec-2019
HD Live streaming from Space Station
objects crossing your sky now

CZ-2C DEB


CZ-2C DEB is no longer on orbit


NORAD ID: 37945
Int'l Code: 2011-072E
Perigee: N/A
Apogee: N/A
Inclination: N/A
Period: N/A
Semi major axis: N/A
RCS: N/A
Launch date: November 29, 2011
Source: People's Republic of China (PRC)
Launch site: Taiyaun Space Center, China (TSC)
Decay date: 2012-01-08

Note: This is SATELLITE DEBRIS
aabbcc
Your satellite tracking list
Your tracking list is empty




NASA's NSSDC Master Catalog

Two Line Element Set (TLE):
1 37945U 11072E   12007.91869784  .21024294  23553-5  64776-2 0  9990
2 37945 097.1738 317.6964 0013603 209.1027 151.6041 16.26481604  6119
Source of the keplerian elements: AFSPC